Погода в Лепеле

Погода в Лепеле : погода сейчас, прогноз погоды и архив. Всё, что Вы хотите узнать о погоде в Лепеле!

Хотите узнать прогноз погоды в Лепеле? Тогда Вам сюда: Погода в Лепеле

Поиск расширенной информации на нашем сайте:

Полезная информация: Колесные краны автомобильные либхер аренда автокранов.

Другие новости

Новости СМИ2

Главная страница сайта

Новости сайта

03.07.2017

Напоминаем, что на нашем специализированном сайте Метеоцентр.Азия вы можете получить высокодетализированные автоматические прогнозы погоды по пунктам России, СНГ и мира в авиационном формате (включающие направление и скорость ветра, видимость, явления погоды, количество и форму облачности, нижнюю и верхнюю границу облачности).

Рекомендуем: диски bmw

Погода в Лепеле - сегодня

Время (UTC), дата Ветер
(°,м/с) 
Видим.   Явления Облачность Т
(°С)
Тd
(°С)
f(%) Тe
(°С)
Pmin
(гПа)
dP
(гПа)
Po
(мм)
O2
(г/м3)
Тmin Tmax R s Состояние
почвы
18 07.05.18 тихо ()   15000 м    ясно 
+17.8 +7.6 51 +18  1019.9    749  282    +21.5       
06 08.05.18 330 (СЗ) 20000 м    3/0 верхняя 
[Ci sp]
+15.3 +6.2 55 +17  1019.5    749  285  +8.3         
18 08.05.18 350 (С) 20000 м    ясно 
+19.4 +10.2 55 +23  1015.4    746  279    +23.7       
06 09.05.18 040 (СВ) 20000 м    6/0 верхняя 
[Ci fib]
+16.7 +8.5 58 +18  1016.3    747  282  +12.6         
18 09.05.18 050 (СВ) 20000 м    ясно 
+19.3 +8.5 50 +21  1016.4    747  280    +23.5       
06 10.05.18 090 (В) 17000 м    ясно 
+13.4 +4 53 +14  1021.1    750  288  +10         
18 10.05.18 040 (СВ) 16000 м    ясно 
+16 +4 45 +17  1021.4    750  285    +20.2       
06 11.05.18 110 (В) 17000 м    ясно 
+13.4 +3.4 51 +14  1025.8    754  289  +5.8         
18 11.05.18 060 (СВ) 17000 м    6/0 верхняя 
[Ci fib]
+15.8 +4.8 48 +17  1022.9    752  286    +19.6       
06 12.05.18 020 (С) 15000 м    ясно 
+14.6 +6.5 58 +16  1024.3    753  287  +7.8         
18 12.05.18 360 (С) 17000 м    6/0 верхняя 
[Ci fib]
+19.5 +7.1 44 +21  1019.7    749  281    +23.1       
06 13.05.18 100 (В) 15000 м    6/0 средняя 
[Ac trans]
+16.6 +6.7 52 +17  1019.5    749  283  +11.5         
18 13.05.18 130 (ЮВ) 17000 м    ясно 
+16.8 +5.1 46 +18  1020.9    750  284    +22       
18 14.05.18 090 (В) 17000 м    9/0 средняя, верхняя 
[Ac trans|Ci fib]
+18 +8.5 54 +19  1019.7    749  282    +21.7       
06 15.05.18 150 (ЮВ) 13000 м  в посл. час дождь  9/9 500 м 
[Sc]
+13 +12.4 96 +19  1019    749  285  +12.5    12     
18 15.05.18 тихо ()   15000 м    3/3 600 м 
[Sc diur, vesp]
+15.6 +8.8 64 +16  1017.9    748  284    +19       
06 16.05.18 120 (ЮВ) 15000 м    9/0 средняя 
[Ac trans]
+12.9 +11 88 +16  1016.2    747  285  +8.5         
18 16.05.18 100 (В) 13000 м    9/3 600 м средняя 
[Sc|Ac trans]
+17.1 +13.7 80 +25  1013.6    745  280    +20       
06 17.05.18 140 (ЮВ) 15000 м  {ливн. осадки}  8/8 540 м 
[Sc]
+15.4 +14 91 +23  1009.5    742  280  +14       
18 17.05.18 200 (Ю) 1{10}  15000 м    ясно 
+17 +11.3 69 +21  1010.1    742  279    +22.5       
06 18.05.18 120 (ЮВ) 17000 м    ясно 
+17.3 +12.1 71 +23  1008.6    741  279  +12         
18 18.05.18 260 (З) 17000 м  {гроза, ливн. осадки}  3/0 средняя 
[Ac trans]
+16.5 +12.9 79 +24  1007.5    740  279    +21.8  14     
06 19.05.18 360 (С) 12000 м    9/9 500 м 
[Sc]
+13.5 +12 91 +17  1011    743  283  +11.6         
18 19.05.18 330 (СЗ) 2{10}  17000 м    ясно 
+14.2 +2.5 45 +15  1016.3    747  286    +18.7       
06 20.05.18 360 (С) 20000 м    3/0 средняя 
[Ac trans]
+12.7 +1.9 48 +13  1022.9    752  289  +5.8         
Время (UTC), дата Ветер
(°,м/с) 
Видим.   Явления Облачность Т
(°С)
Тd
(°С)
f(%) Тe
(°С)
Pmin
(гПа)
dP
(гПа)
Po
(мм)
O2
(г/м3)
Тmin Tmax R s Состояние
почвы

Для получения пояснительной информации подведите курсор к названию столбца.

ПОГОДА в Лепеле - архив

Всё, что Вы хотите узнать о погоде в Лепеле - удобно и подробно!

Выберите нужную дату (начиная с 1 января 2015* года) и нажмите кнопку "Найти".
Будут отображены архивные сводки погоды по пункту Лепель, начиная с указанной даты.


Отображать данные в формате CSV (для использования в таблицах Excel)


Внимание! Наш архив погоды предназначен исключительно для личного некоммерческого использования в познавательных целях. Если Вам необходимы официальные справки о состоянии погоды (для производственных, юридических, коммерческих и т.п. целей), обращайтесь в органы Росгидромета.

*Примечание: данная дата относится к архиву по метеостанциям СССР (Россия, СНГ, Балтия).
Архив по метеостанциям Зарубежной Европы и Азии (кроме Китая) хранится 10 дней, по другим регионам земного шара (Китай, Африка, Америка, Австралия, Океания) - 1 день.

Лепель - район местоположения метеостанции


Название, широта, долгота, высота метеостанции:
Лепель 54.9°ш. 28.7°д. 174 м над ур. моря [Беларусь]

Дополнительная информация

В oтличие oт бoльшинства пoгoдных сайтoв мы публикуем пoдрoбную метеoинфoрмацию в детальнoм прoфессиoнальнoм фoрмате.

Характеристики температуры и влажнoсти вoздуха измеряются на высoте 2 м в тени вдали oт зданий и деревьев.
Скoрoсть ветра измеряется на высoте 10 м (на урoвне рoста челoвека скoрoсть ветра ниже в 1.5-2 раза). Если метеoстанция нахoдится в гoрoде или в лесу, тo скoрoсть ветра занижена на 2-4 м/с пo сравнению с oткрытым местoм. Скoрoсть ветра над акватoриями крупных рек и oзёр, а также на вершинах хoлмoв на 2-5 м/с выше, чем в oбычных услoвиях.
Атмoсфернoе давление в разных тoчках местнoсти мoжет значительнo oтличаться oт давления на метеoстанции, в зависимoсти oт услoвий рельефа (при пoдъёме на 10 м давление пoнижается примернo на 1 мм рт.ст.).